Home > Weather > New York > Past weeks

Flag for U.S.A. Weather for the Past 2 Weeks in New York, New York, U.S.A.

Now
38 °F

Overcast.


Feels Like: 30 °F
Forecast: 29 / 37 °F
Wind: 12 mph from Northeast

Location: New York City - Central Park

Current Time: Feb 8, 2016 at 6:22:22 AM

Latest Report: Feb 8, 2016 at 5:51 AM


Visibility: 10 mi

Pressure: 29.75 "Hg

Humidity: 63%

Dew point: 26 °F

Location of New YorkLocation

Historic Weather in New York — Graph

°F

New York Temperature Yesterday

Maximum temperature yesterday: 47 °F (at 1:51 PM)
Minimum temperature yesterday: 34 °F (at 5:51 AM)
Average temperature yesterday: 39 °F

High & Low Weather Summary for the Past Weeks

 TemperatureHumidityPressure
High59 °F (Feb 1, 12:51 PM)93% (Feb 3, 5:51 PM)30.43 "Hg (Feb 3, 5:51 PM)
Low20 °F (Jan 24, 7:51 AM)32% (Jan 27, 3:51 PM)29.46 "Hg (Jan 29, 12:51 PM)
Average41 °F54%30.02 "Hg
* Reported Jan 24 4:51 AM — Feb 8 4:51 AM, New York, Weather by CustomWeather, © 2016

Note: Actual official high and low records may vary slightly from our data, if they occured in-between our weather recording intervals... More about our weather records

Advertising

New York Weather History for the Previous 24 Hours

 ConditionsComfort  
Time TempWeatherWind HumidityBarometerVisibility
4:51 AM
Mon, Feb 8
38 °FOvercast.16 mph63%29.74 "Hg10 mi
3:51 AM38 °FPassing clouds.16 mph63%29.74 "Hg10 mi
2:51 AM38 °FClear.13 mph58%29.77 "Hg10 mi
1:51 AM38 °FClear.14 mph48%29.82 "Hg10 mi
12:51 AM39 °FClear.15 mph48%29.85 "Hg10 mi
11:51 PM
Sun, Feb 7
39 °FClear.15 mph57%29.90 "Hg10 mi
10:51 PM40 °FClear.14 mph60%29.92 "Hg10 mi
9:51 PM39 °FClear.5 mph62%29.95 "Hg10 mi
8:51 PM39 °FClear.9 mph62%29.97 "Hg10 mi
7:51 PM40 °FClear.9 mph55%29.99 "Hg10 mi
6:51 PM41 °FClear.8 mph58%30.01 "Hg10 mi
5:51 PM42 °FClear.8 mph47%30.01 "Hg10 mi
4:51 PM43 °FSunny.6 mph42%30.03 "Hg10 mi
3:51 PM45 °FSunny.7 mph37%30.04 "Hg10 mi
2:51 PM46 °FSunny.6 mph37%30.05 "Hg10 mi
1:51 PM47 °FSunny.7 mph36%30.08 "Hg10 mi
12:51 PM45 °FSunny.3 mph35%30.11 "Hg10 mi
11:51 AM42 °FSunny.No wind41%30.13 "Hg10 mi
10:51 AM41 °FSunny.3 mph43%30.15 "Hg10 mi
9:51 AM39 °FSunny.No wind46%30.16 "Hg10 mi
8:51 AM37 °FSunny.No wind50%30.18 "Hg10 mi
7:51 AM35 °FSunny.No wind56%30.18 "Hg10 mi
6:51 AM35 °FClear.5 mph54%30.19 "Hg10 mi
Weather by CustomWeather, © 2016

See weather overviewHow to use our weather pages